Date String (YYYY-MM-DD hh:mm:ss) UTC,Instrument flags,Ambient pressure (hPa),Sample flow (lpm),Bypass flow (lpm),Sample temperature (°C),Ambient temperature (°C),ASC tube jacket temperature (°C),LED temperature (°C),Box temperature (°C),Sample RH (%),Span deviation,Mass concentration (μg/m³),Mass concentration (μg/m³),Mass concentration (μg/m³)
DateTimeUTC,F1_M11,P_M11,Q1_M11,Q2_M11,T1_M11,T2_M11,T3_M11,T4_M11,T5_M11,U1_M11,ZSPAN_M11,X2_M11,X0_M11,X1_M11
2021-12-11 03:00:00,,0822.6,5.00,0.00,22.2,22.5,00.0,31.2,24.0,05.6,0000.0,0001.75,0003.44,0001.26
2021-12-11 03:01:00,,0822.6,5.00,0.00,22.3,23.3,00.0,31.2,24.3,05.5,0000.0,0001.74,0003.42,0001.24
2021-12-11 03:02:00,,0822.6,4.99,0.00,22.4,23.3,00.0,31.3,24.4,05.4,0000.0,0001.68,0002.89,0001.22
2021-12-11 03:03:00,,0822.6,5.01,0.00,22.4,23.0,00.0,31.3,24.3,05.4,0000.0,0001.64,0002.64,0001.21
2021-12-11 03:04:00,,0822.6,4.99,0.00,22.4,22.7,00.0,31.3,24.2,05.3,0000.0,0001.61,0002.61,0001.19
2021-12-11 03:05:00,,0822.6,5.01,0.00,22.4,22.4,00.0,31.3,24.1,05.3,0000.0,0001.60,0003.10,0001.18
2021-12-11 03:06:00,,0822.6,4.98,0.00,22.3,22.2,00.0,31.3,24.0,05.3,0000.0,0001.59,0003.76,0001.17
2021-12-11 03:07:00,,0822.6,5.02,0.00,22.3,22.0,00.0,31.3,23.9,05.2,0000.0,0001.54,0003.78,0001.13
2021-12-11 03:08:00,,0822.6,5.00,0.00,22.3,21.9,00.0,31.3,23.9,05.3,0000.0,0001.52,0003.85,0001.12
2021-12-11 03:09:00,,0822.7,4.99,0.00,22.2,21.7,00.0,31.3,23.8,05.3,0000.0,0001.48,0004.07,0001.12
2021-12-11 03:10:00,,0822.6,5.01,0.00,22.2,21.6,00.0,31.3,23.8,05.3,0000.0,0001.47,0004.20,0001.11
2021-12-11 03:11:00,,0822.6,5.02,0.00,22.1,21.5,00.0,31.3,23.8,05.4,0000.0,0001.48,0004.18,0001.10
2021-12-11 03:12:00,,0822.6,5.00,0.00,22.1,21.5,00.0,31.2,23.7,05.4,0000.0,0001.47,0004.51,0001.08
2021-12-11 03:13:00,,0822.6,5.00,0.00,22.1,21.4,00.0,31.2,23.7,05.3,0000.0,0001.49,0004.74,0001.06
2021-12-11 03:14:00,,0822.6,4.99,0.00,22.1,21.3,00.0,31.2,23.6,05.4,0000.0,0001.51,0004.75,0001.06
2021-12-11 03:15:00,,0822.6,5.01,0.00,22.0,21.3,00.0,31.2,23.6,05.4,0000.0,0001.51,0004.74,0001.06
2021-12-11 03:16:00,,0822.6,5.00,0.00,22.0,21.5,00.0,31.2,23.6,05.4,0000.0,0001.48,0004.23,0001.05
2021-12-11 03:17:00,,0822.6,5.01,0.00,22.1,22.2,00.0,31.2,23.9,05.4,0000.0,0001.46,0003.54,0001.05
2021-12-11 03:18:00,,0822.6,5.00,0.00,22.3,22.9,00.0,31.2,24.2,05.3,0000.0,0001.50,0003.66,0001.07
2021-12-11 03:19:00,,0822.6,5.00,0.00,22.4,23.1,00.0,31.3,24.4,05.2,0000.0,0001.52,0003.69,0001.08
2021-12-11 03:20:00,,0822.6,5.00,0.00,22.4,22.9,00.0,31.3,24.3,05.1,0000.0,0001.55,0003.38,0001.08
2021-12-11 03:21:00,,0822.6,4.99,0.00,22.4,22.6,00.0,31.3,24.3,05.1,0000.0,0001.54,0003.23,0001.08
2021-12-11 03:22:00,,0822.6,5.00,0.00,22.4,22.4,00.0,31.3,24.2,05.1,0000.0,0001.50,0003.14,0001.07
2021-12-11 03:23:00,,0822.6,5.01,0.00,22.4,22.3,00.0,31.3,24.1,05.2,0000.0,0001.49,0002.98,0001.07
2021-12-11 03:24:00,,0822.6,4.99,0.00,22.4,22.1,00.0,31.3,24.1,05.2,0000.0,0001.50,0002.69,0001.08
2021-12-11 03:25:00,,0822.6,5.01,0.00,22.4,22.0,00.0,31.3,24.0,05.2,0000.0,0001.45,0002.56,0001.07
2021-12-11 03:26:00,,0822.6,5.00,0.00,22.4,21.9,00.0,31.3,24.0,05.2,0000.0,0001.44,0002.54,0001.06
2021-12-11 03:27:00,,0822.6,4.99,0.00,22.3,21.8,00.0,31.3,24.0,05.2,0000.0,0001.45,0002.53,0001.06
2021-12-11 03:28:00,,0822.6,5.01,0.00,22.3,21.7,00.0,31.3,24.0,05.2,0000.0,0001.47,0002.55,0001.06
2021-12-11 03:29:00,,0822.7,4.99,0.00,22.3,21.7,00.0,31.3,24.0,05.2,0000.0,0001.49,0002.42,0001.05
2021-12-11 03:30:00,,0822.6,5.01,0.00,22.3,21.6,00.0,31.3,23.9,05.2,0000.0,0001.48,0002.44,0001.05
2021-12-11 03:31:00,,0822.6,5.00,0.00,22.3,21.6,00.0,31.3,24.0,05.2,0000.0,0001.49,0003.21,0001.05
2021-12-11 03:32:00,,0822.6,5.00,0.00,22.3,21.5,00.0,31.3,23.9,05.2,0000.0,0001.50,0003.30,0001.07
2021-12-11 03:33:00,,0822.6,5.00,0.00,22.3,21.5,00.0,31.3,23.9,05.2,0000.0,0001.55,0003.46,0001.09
2021-12-11 03:34:00,,0822.6,4.99,0.00,22.2,21.5,00.0,31.3,23.9,05.2,0000.0,0001.59,0003.56,0001.09
2021-12-11 03:35:00,,0822.6,5.00,0.00,22.2,21.5,00.0,31.2,23.9,05.2,0000.0,0001.55,0003.39,0001.09
2021-12-11 03:36:00,,0822.6,4.99,0.00,22.3,22.1,00.0,31.3,24.1,05.2,0000.0,0001.59,0003.54,0001.09
2021-12-11 03:37:00,,0822.6,5.01,0.00,22.4,22.9,00.0,31.3,24.3,05.2,0000.0,0001.62,0003.60,0001.10
2021-12-11 03:38:00,,0822.7,5.00,0.00,22.6,23.3,00.0,31.4,24.5,05.1,0000.0,0001.63,0003.63,0001.11
2021-12-11 03:39:00,,0822.7,5.00,0.00,22.6,23.1,00.0,31.4,24.5,05.1,0000.0,0001.68,0003.82,0001.12
2021-12-11 03:40:00,,0822.7,5.00,0.00,22.6,22.8,00.0,31.4,24.5,05.1,0000.0,0001.67,0003.83,0001.12
2021-12-11 03:41:00,,0822.6,4.99,0.00,22.6,22.6,00.0,31.4,24.4,05.1,0000.0,0001.69,0003.85,0001.11
2021-12-11 03:42:00,,0822.6,4.99,0.00,22.6,22.4,00.0,31.4,24.3,05.1,0000.0,0001.67,0003.08,0001.10
2021-12-11 03:43:00,,0822.6,5.01,0.00,22.6,22.3,00.0,31.4,24.3,05.1,0000.0,0001.66,0003.01,0001.10
2021-12-11 03:44:00,,0822.6,5.00,0.00,22.6,22.1,00.0,31.4,24.2,05.1,0000.0,0001.60,0002.81,0001.09
2021-12-11 03:45:00,,0822.6,5.00,0.00,22.5,22.0,00.0,31.4,24.2,05.1,0000.0,0001.53,0002.66,0001.07
2021-12-11 03:46:00,,0822.6,4.99,0.00,22.5,21.9,00.0,31.4,24.2,05.1,0000.0,0001.54,0003.05,0001.09
2021-12-11 03:47:00,,0822.6,5.01,0.00,22.5,21.9,00.0,31.4,24.2,05.1,0000.0,0001.52,0003.12,0001.09
2021-12-11 03:48:00,,0822.6,5.01,0.00,22.5,21.8,00.0,31.4,24.2,05.1,0000.0,0001.50,0003.06,0001.08
2021-12-11 03:49:00,,0822.6,4.99,0.00,22.5,21.7,00.0,31.4,24.1,05.1,0000.0,0001.51,0003.05,0001.09
2021-12-11 03:50:00,,0822.6,5.01,0.00,22.4,21.7,00.0,31.4,24.1,05.0,0000.0,0001.47,0003.14,0001.09
2021-12-11 03:51:00,,0822.6,4.99,0.00,22.4,21.6,00.0,31.4,24.1,05.0,0000.0,0001.40,0003.02,0001.08
2021-12-11 03:52:00,,0822.6,5.01,0.00,22.4,21.6,00.0,31.4,24.1,05.0,0000.0,0001.35,0002.88,0001.09
2021-12-11 03:53:00,,0822.6,4.99,0.00,22.4,21.5,00.0,31.4,24.0,05.0,0000.0,0001.38,0002.90,0001.10
2021-12-11 03:54:00,,0822.6,4.99,0.00,22.3,21.5,00.0,31.4,24.0,05.0,0000.0,0001.40,0003.01,0001.09
2021-12-11 03:55:00,,0822.6,5.01,0.00,22.3,21.5,00.0,31.4,24.0,05.0,0000.0,0001.43,0003.16,0001.08
2021-12-11 03:56:00,,0822.6,4.99,0.00,22.3,21.5,00.0,31.3,23.9,05.0,0000.0,0001.44,0003.24,0001.09
2021-12-11 03:57:00,,0822.7,5.00,0.00,22.3,21.9,00.0,31.4,24.0,05.0,0000.0,0001.44,0003.58,0001.07
2021-12-11 03:58:00,,0822.7,5.00,0.00,22.4,22.6,00.0,31.4,24.3,04.9,0000.0,0001.46,0004.66,0001.06
2021-12-11 03:59:00,,0822.8,5.00,0.00,22.6,23.2,00.0,31.4,24.5,04.9,0000.0,0001.45,0004.63,0001.05
